This is the latest recevied weather packets stored in our database for station/object p43g-13. If no packets are shown the sender has not sent any weather packets the latest 10 day(s).
| Time | Temp. | Humidity | Pressure | Rain* | Wind** | Luminosity | Snow |
|---|---|---|---|---|---|---|---|
| 1787581709 | 31.11° C | 75% | 1013 hPa | 0 mm | - | 826 W/m² | - |
| 1787581409 | 31.11° C | 77% | 1013.1 hPa | 0 mm | - | 799 W/m² | - |
| 1787581109 | 31.11° C | 75% | 1012.9 hPa | 0 mm | - | 191 W/m² | - |
| 1787580809 | 31.11° C | 75% | 1013.1 hPa | 0 mm | - | 738 W/m² | - |
| 1787580509 | 31.11° C | 77% | 1013.1 hPa | 0 mm | - | 897 W/m² | - |
| 1787580209 | 31.11° C | 77% | 1013 hPa | 0 mm | - | 734 W/m² | - |
| 1787579909 | 31.11° C | 76% | 1013 hPa | 0 mm | - | 391 W/m² | - |
| 1787579609 | 31.11° C | 77% | 1013.1 hPa | 0 mm | - | 724 W/m² | - |
| 1787579309 | 30.56° C | 77% | 1012.9 hPa | 0 mm | - | 682 W/m² | - |
| 1787579008 | 30.56° C | 77% | 1013 hPa | 0 mm | - | 283 W/m² | - |
| 1787578708 | 30.56° C | 77% | 1012.7 hPa | 0 mm | - | 622 W/m² | - |
| 1787578408 | 30.56° C | 77% | 1013.1 hPa | 0 mm | - | 608 W/m² | - |
| 1787578110 | 30.56° C | 78% | 1013 hPa | 0 mm | - | 409 W/m² | - |
| 1787577809 | 30.56° C | 78% | 1013 hPa | 0 mm | - | 626 W/m² | - |
| 1787577508 | 30.56° C | 78% | 1013 hPa | 0 mm | - | 540 W/m² | - |
| 1787577209 | 30.56° C | 78% | 1013.1 hPa | 0 mm | - | 190 W/m² | - |
| 1787576909 | 30.56° C | 78% | 1012.9 hPa | 0 mm | - | 471 W/m² | - |
| 1787576609 | 30.56° C | 80% | 1013.1 hPa | 0 mm | - | 153 W/m² | - |
| 1787576309 | 30° C | 81% | 1012.9 hPa | 0 mm | - | 202 W/m² | - |
| 1787576010 | 30° C | 82% | 1013.1 hPa | 0 mm | - | 548 W/m² | - |
| 1787575708 | 30° C | 81% | 1012.5 hPa | 0 mm | - | 112 W/m² | - |
| 1787575409 | 30° C | 80% | 1012.6 hPa | 0 mm | - | 297 W/m² | - |
| 1787575110 | 30° C | 79% | 1012.6 hPa | 0 mm | - | 339 W/m² | - |
| 1787574811 | 30° C | 80% | 1012.5 hPa | 0 mm | - | 297 W/m² | - |
| 1787574509 | 30° C | 80% | 1012.6 hPa | 0 mm | - | 278 W/m² | - |
* Rain latest hour (hover to see other rain measurements)
** Current wind speed in m/s (hover to see current wind gust speed)